Wind_Speed
0 1 3 4 6 7 5 5 2 5 6 10 10 9 10 11 13 12 12 11 9 8 9 10 9 7 8 11 12 9 8 6 3 3 7 10 16 16 13 13 15 15 13 11 12 14 14 16 16 16 16 16 18 19 20 22 22 22 23 23 22 22 21 21 20 21 21 20 19 20 19 17 17 17 17 16 15 15 15 15 14 13 12 12 11 10 10 9 8 8 7 8 8 8 8 8 8
1 3 4 5 7 6 2 3 3 9 8 11 10 9 10 11 13 13 13 12 10 10 10 10 10 11 12 12 10 10 10 9 6 6 10 16 18 14 14 16 16 15 13 12 12 12 13 16 15 16 16 16 17 18 20 20 21 22 22 22 22 22 21 21 20 21 21 20 19 19 18 17 17 16 15 15 15 15 15 14 13 12 12 11 10 10 9 8 8 8 8 8 8 8 8 7 7
2 3 4 6 5 5 3 1 5 10 10 11 9 9 11 11 13 13 14 14 12 12 10 10 10 8 9 12 9 10 9 8 11 11 10 14 15 14 17 16 16 15 12 12 12 12 13 15 16 17 16 15 16 17 19 19 20 21 22 22 22 22 21 20 20 21 20 19 18 18 17 16 16 15 15 15 15 14 14 13 12 12 11 11 10 10 9 9 9 9 8 8 8 7 7 7 6
3 3 4 6 4 3 1 5 7 8 11 9 8 10 11 12 13 13 14 13 12 11 9 10 9 8 11 14 11 11 10 9 11 11 9 11 13 17 18 16 16 14 12 11 12 11 13 16 17 18 17 15 15 16 18 18 19 19 20 21 21 21 20 20 20 20 20 19 18 17 17 16 16 15 14 14 14 14 14 13 13 12 11 11 11 11 10 10 9 9 8 7 7 6 6 6 6
4 3 4 6 3 1 2 6 7 8 11 9 8 11 12 12 12 12 12 11 10 9 9 8 8 9 12 11 7 8 10 11 10 10 11 12 15 18 18 17 16 14 12 10 11 10 14 17 16 18 17 15 15 15 17 17 18 18 19 20 21 20 19 19 20 20 19 18 18 17 17 17 16 15 15 14 13 13 13 13 12 12 12 11 11 10 10 9 9 8 7 6 6 5 5 5 4
4 4 4 6 3 2 2 7 9 9 10 10 9 10 12 12 12 12 12 10 9 8 8 9 10 12 11 10 9 8 8 10 11 10 12 16 18 18 18 18 16 15 13 11 11 10 14 17 16 17 17 16 16 15 16 16 17 19 19 20 20 19 19 19 18 18 18 17 17 17 16 16 15 15 14 14 13 13 13 12 12 11 11 11 10 9 9 8 7 7 6 4 4 3 3 3 3
3 3 4 4 2 1 5 10 10 9 10 11 11 11 12 12 12 12 11 10 9 8 9 11 12 12 10 8 9 8 7 10 11 11 14 18 18 18 18 17 16 16 15 13 13 12 15 17 16 16 15 15 16 16 15 16 17 18 19 19 19 18 18 17 17 16 16 16 16 16 15 14 14 14 13 13 13 12 12 12 11 10 9 9 8 8 7 6 5 5 3 2 3 2 2 1 1
5 3 2 2 2 4 7 10 10 9 9 11 12 12 12 11 10 10 10 9 8 10 11 11 11 11 10 8 9 8 9 10 13 16 18 19 19 18 17 16 17 17 16 15 14 14 16 16 15 15 15 15 16 16 16 16 17 18 18 18 18 17 16 16 15 15 14 15 15 14 14 13 13 13 12 12 12 12 11 10 10 9 8 7 6 6 5 5 4 3 3 3 2 1 1 2 1
6 3 2 2 4 7 8 9 10 9 10 12 11 11 11 9 8 8 10 10 10 10 10 9 8 10 12 12 11 8 10 12 17 19 19 20 19 18 16 16 17 18 17 15 15 16 17 16 15 15 15 15 16 16 15 15 16 17 17 17 17 16 16 15 14 14 14 14 14 13 13 12 11 11 11 11 11 10 10 10 9 8 7 6 5 4 3 3 3 2 2 2 1 1 2 3 3
4 2 2 1 5 7 8 9 9 9 11 11 11 11 10 8 8 9 11 12 11 9 10 9 10 13 14 13 10 8 12 16 20 19 18 19 18 17 16 16 16 17 17 16 16 15 16 17 16 15 15 15 15 15 14 14 15 16 16 16 16 16 15 14 13 13 13 13 13 13 12 11 10 10 10 10 10 9 9 9 9 8 7 6 4 3 2 2 1 2 1 1 2 2 2 2 3
3 2 2 1 5 7 8 9 9 9 11 10 11 10 8 9 9 11 11 11 10 11 12 11 13 14 14 12 8 10 15 18 20 20 19 18 17 16 17 16 16 17 17 17 16 15 15 16 16 16 15 14 14 14 14 15 15 16 15 15 15 16 14 13 12 12 12 12 11 11 11 9 9 9 9 9 8 8 7 7 7 6 5 4 3 2 1 2 2 2 3 4 3 4 4 3 4
2 1 2 2 5 6 8 10 10 10 11 10 10 8 7 8 10 11 11 11 12 12 10 9 11 12 12 11 8 13 18 17 19 20 19 18 17 16 16 16 16 17 17 17 15 15 14 15 16 16 15 14 14 13 14 15 15 15 15 15 15 15 14 12 12 11 11 11 10 10 9 8 8 8 7 7 7 6 5 5 4 3 3 3 2 1 1 4 4 4 4 5 5 5 5 5 6
2 1 1 3 4 5 9 10 10 9 9 8 8 8 7 6 9 10 11 12 9 8 9 10 12 11 11 10 9 13 16 17 18 20 18 17 17 16 15 16 17 17 16 16 15 14 14 15 15 15 15 14 14 13 14 14 15 15 14 14 13 13 13 13 12 11 10 10 9 8 8 7 7 7 6 6 5 5 4 3 3 2 2 2 2 2 3 6 7 6 7 7 8 7 7 7 7
2 2 1 3 3 4 8 8 9 8 7 8 9 9 6 6 9 9 10 11 8 9 12 10 11 11 11 10 9 11 14 18 19 19 18 17 17 17 16 15 16 16 15 15 14 14 14 13 14 14 14 14 14 14 14 14 14 14 14 13 13 13 12 12 11 10 9 9 8 7 7 6 6 6 6 6 5 4 4 4 3 2 2 3 4 4 5 8 9 8 9 9 9 9 9 9 9
3 2 1 4 5 5 5 6 9 8 7 9 10 9 8 7 8 7 7 9 10 11 10 8 6 6 12 12 10 12 17 22 20 18 18 17 17 17 16 15 15 15 14 14 14 14 13 12 13 13 14 13 13 13 13 14 14 13 13 13 13 12 11 10 9 9 8 7 7 6 7 6 6 6 6 6 5 5 5 4 4 4 3 5 7 7 6 9 11 10 10 10 10 10 10 10 10
3 3 2 4 5 5 4 4 7 8 7 9 10 10 10 8 7 8 7 8 12 9 4 5 4 3 11 13 14 19 22 23 20 19 19 17 16 16 16 15 15 14 13 13 13 13 12 12 12 12 12 13 13 12 12 14 13 12 12 12 11 11 10 9 8 8 7 6 6 7 6 6 5 6 6 6 6 7 7 6 7 6 5 6 8 8 8 11 12 11 11 10 10 10 10 11 10
2 4 3 4 4 5 5 4 4 7 9 11 12 10 11 10 8 8 8 11 12 8 5 5 4 5 10 14 21 25 23 22 21 21 20 18 16 15 15 14 14 14 13 13 12 12 12 11 11 11 11 11 11 10 11 11 12 12 11 12 11 11 10 9 9 8 8 7 8 8 6 6 5 5 6 6 6 7 8 8 9 8 7 8 10 10 10 12 13 12 12 11 10 10 9 10 10
3 4 4 4 4 6 5 5 6 8 10 11 11 9 10 10 10 8 9 11 11 10 9 9 10 11 16 21 26 25 23 22 21 21 20 18 17 16 16 14 13 13 13 13 12 12 12 11 11 10 10 10 10 9 10 9 11 12 10 11 10 10 10 10 9 9 9 8 8 8 6 6 5 5 5 6 6 7 9 10 11 10 10 10 11 11 11 13 14 13 14 13 11 10 8 8 8
4 3 4 5 6 8 5 7 7 7 11 11 10 8 9 10 10 7 6 10 9 10 11 12 15 15 19 24 25 25 24 22 20 20 19 18 17 17 17 16 14 13 14 14 13 13 12 12 12 11 11 12 11 10 10 9 11 11 10 10 10 10 11 10 10 10 10 9 8 7 6 6 6 7 7 7 8 9 11 12 14 13 12 12 12 13 13 14 14 13 14 14 11 9 7 6 7
4 3 4 7 8 9 5 6 6 7 12 12 10 9 9 9 7 5 6 9 8 9 10 12 16 17 19 20 22 24 23 22 20 19 19 17 16 16 16 16 16 15 15 14 14 14 13 13 13 12 12 13 12 10 10 10 11 11 10 9 9 10 10 10 10 10 10 9 8 7 6 7 8 8 9 9 9 10 11 13 14 14 14 13 13 13 13 13 13 12 12 12 9 7 7 6 7
2 2 5 9 7 8 6 5 7 9 11 11 11 11 10 9 5 4 6 7 6 8 9 12 17 19 20 20 20 22 21 22 20 18 18 17 16 16 15 15 15 14 14 14 14 15 15 14 14 14 13 13 13 12 11 9 10 10 10 10 10 10 10 9 10 9 9 9 8 8 7 8 8 8 9 9 9 9 10 11 12 12 12 11 12 13 12 10 10 10 9 9 8 7 7 7 7
1 5 8 8 5 8 8 6 9 10 11 11 10 10 10 9 7 6 3 5 6 7 10 14 17 18 20 20 20 20 20 20 20 19 18 18 17 16 15 15 14 14 14 14 14 15 15 15 14 14 14 13 13 12 10 9 10 10 10 12 12 12 11 9 9 9 8 8 9 8 8 9 9 9 9 9 9 9 9 10 10 10 11 11 11 12 11 10 9 9 9 8 8 8 8 8 7
2 6 6 6 6 10 9 8 10 10 11 10 9 10 10 10 11 10 10 11 10 10 14 17 17 17 19 20 19 18 18 17 18 19 18 18 18 16 15 15 14 14 14 14 14 14 15 15 14 14 13 13 12 11 9 9 9 10 10 11 11 10 9 9 8 8 8 8 8 8 9 9 9 9 9 9 9 9 9 10 10 10 11 11 11 11 11 10 9 9 9 9 9 9 9 9 8
3 8 6 7 9 11 10 9 10 11 12 10 9 10 9 11 11 10 13 14 13 15 16 17 18 18 18 17 17 16 16 16 16 17 17 17 17 16 15 15 14 14 13 13 13 14 15 15 15 14 12 12 12 11 10 9 8 9 9 8 9 8 8 8 8 8 7 7 8 9 9 10 10 9 9 9 9 9 9 9 10 12 14 14 12 12 12 11 9 8 9 9 9 9 9 9 8
5 9 8 8 11 11 11 10 11 13 11 10 11 10 11 13 12 12 14 14 14 16 16 17 17 17 16 15 15 15 14 15 15 15 15 14 15 15 14 14 14 14 14 14 14 14 14 15 15 14 13 12 12 11 11 10 9 8 8 8 8 8 9 9 8 7 7 7 7 8 9 10 10 9 9 9 9 9 9 9 9 11 14 16 16 15 13 12 10 8 8 9 10 10 10 9 9
7 9 9 10 12 11 11 11 12 12 9 10 12 12 13 14 13 12 13 14 15 16 16 16 16 15 15 14 14 13 13 14 14 14 13 13 13 14 14 13 13 14 14 14 14 13 14 14 15 15 14 13 12 11 11 10 9 9 9 8 8 8 8 8 8 8 8 8 8 8 8 9 10 10 10 10 9 10 10 11 11 11 12 14 17 18 16 13 11 9 8 9 10 11 10 10 9
9 11 12 11 12 11 10 11 13 12 10 11 12 13 13 9 8 9 11 13 15 16 16 15 14 14 14 13 13 13 12 13 13 12 12 12 12 13 13 12 12 13 13 13 13 12 12 14 14 14 14 13 12 11 10 10 10 9 9 8 8 8 8 8 8 8 9 9 9 9 9 10 11 11 11 11 11 11 11 12 12 10 10 12 14 18 17 14 12 10 9 9 10 11 11 11 10
12 13 13 12 12 10 10 12 12 10 10 12 13 14 11 6 7 10 12 13 14 16 16 14 13 13 13 13 12 10 11 12 12 12 12 12 11 12 12 12 12 12 12 13 12 11 12 13 13 13 13 13 12 11 10 10 10 9 9 8 8 7 7 8 8 9 9 10 11 12 13 14 14 14 14 14 13 12 11 11 11 10 11 12 15 18 18 15 13 12 11 11 11 11 12 12 11
13 13 12 11 12 10 10 10 10 10 10 11 11 11 10 8 11 13 12 12 13 15 14 14 13 12 11 12 10 9 10 11 11 11 11 11 10 10 11 11 11 11 11 12 12 11 11 11 12 13 13 13 13 12 11 10 9 9 8 8 7 7 7 8 8 9 10 11 12 14 14 15 16 17 16 16 15 14 14 13 14 15 14 13 16 18 18 17 15 14 14 13 12 12 12 12 12
12 11 9 10 9 9 9 7 9 10 9 6 4 4 9 10 12 13 12 12 13 13 13 13 12 11 10 10 9 9 10 11 11 10 10 9 8 8 9 9 9 9 8 10 12 12 11 10 11 12 13 13 14 13 11 10 9 8 7 7 7 7 7 8 9 10 11 12 13 14 15 15 17 18 19 19 18 18 17 17 17 18 18 17 16 16 17 18 17 16 15 15 14 13 13 12 12
9 8 8 8 6 8 10 8 9 9 7 3 5 1 7 10 13 12 11 11 12 12 12 12 11 10 10 9 9 9 9 10 10 9 9 8 7 7 7 7 8 8 7 7 9 11 11 10 10 10 12 13 14 13 12 11 9 8 8 8 7 7 8 8 10 10 11 13 14 16 16 17 18 18 20 21 22 22 20 19 19 18 19 20 17 15 15 16 17 18 17 16 15 15 14 13 12
7 7 8 7 5 8 10 8 8 6 5 5 6 2 7 9 12 12 11 11 10 10 11 11 11 11 10 9 9 8 9 10 9 9 8 8 7 6 6 6 7 8 7 6 7 9 10 10 9 9 9 11 12 12 12 11 9 9 8 8 7 7 8 9 11 11 12 14 16 18 18 20 20 21 22 21 22 23 23 23 23 23 23 23 21 18 17 17 16 18 19 18 18 17 15 14 13
7 7 7 7 7 7 8 9 9 4 4 5 4 2 7 8 11 12 12 11 10 9 10 10 10 10 10 8 8 7 8 9 9 8 8 8 7 6 6 6 7 7 8 7 7 8 9 9 9 8 7 8 9 10 10 9 8 8 8 7 7 8 9 10 11 11 12 14 16 18 18 21 24 25 27 25 22 22 24 25 25 27 28 27 26 24 24 21 18 20 22 22 22 19 17 17 14
7 7 6 9 9 8 7 8 9 7 5 5 3 1 7 11 12 12 12 12 10 9 9 10 9 9 9 7 8 7 7 8 8 9 10 9 8 7 7 7 7 7 7 8 8 8 8 9 9 8 7 7 8 8 9 8 7 7 7 7 8 9 10 10 11 11 11 12 13 14 14 19 24 26 26 26 26 24 24 24 24 28 30 29 29 29 29 27 26 27 27 27 27 23 21 19 17
9 8 7 8 8 9 8 6 9 10 7 5 3 3 8 13 13 11 12 11 10 9 9 9 9 9 9 8 7 8 7 7 7 8 10 10 9 8 8 7 7 7 7 7 8 8 8 8 8 9 9 8 8 8 7 6 6 6 6 7 9 9 8 9 10 9 9 9 10 11 11 14 17 18 17 19 23 24 22 22 25 30 31 29 29 28 28 29 30 31 30 30 28 26 25 23 20
12 11 9 9 9 8 7 5 8 11 8 6 5 5 9 12 12 11 11 11 9 8 8 7 8 8 8 8 7 7 7 7 8 8 9 9 9 9 8 7 7 7 7 7 8 8 8 8 8 9 9 9 8 7 6 5 4 4 5 7 7 7 6 6 7 7 7 7 8 9 9 10 10 10 11 12 15 18 18 18 21 24 23 24 28 29 29 29 27 28 30 32 29 27 28 28 24
11 11 10 11 10 8 8 6 7 10 8 5 5 5 9 11 12 11 11 11 9 8 9 8 8 8 8 8 8 8 7 6 7 7 8 8 9 9 9 8 8 7 7 7 7 7 7 8 8 7 7 7 7 6 5 5 3 4 5 6 6 5 4 4 4 5 6 6 7 8 8 8 8 8 8 8 10 12 13 13 15 16 16 18 23 26 26 23 22 24 27 30 30 29 29 28 25
10 10 8 9 8 7 9 7 7 9 8 5 6 6 9 11 11 11 10 11 10 9 10 9 9 9 7 8 8 7 6 6 6 7 8 9 9 10 9 8 8 8 8 8 7 6 6 6 6 6 5 5 5 5 5 5 4 4 4 4 4 4 3 3 5 5 6 6 6 7 7 7 9 9 8 8 9 9 10 11 12 13 13 14 16 19 19 17 19 20 21 24 27 28 28 26 23
9 8 8 8 6 5 7 8 8 8 7 5 8 8 8 10 9 10 10 9 9 8 9 8 8 9 8 8 8 7 7 6 6 7 8 9 9 10 9 8 8 8 8 8 7 6 5 5 4 4 4 4 5 4 4 4 4 4 3 2 3 4 4 4 5 5 5 6 7 7 7 7 9 10 9 9 10 10 11 12 13 14 14 14 15 17 17 17 19 19 21 24 25 25 25 24 21
9 8 8 7 8 7 6 8 9 9 7 4 8 8 6 8 7 8 9 8 7 7 8 7 7 8 8 8 8 8 8 7 7 7 8 9 9 10 9 8 8 8 7 7 6 5 5 5 4 4 3 3 4 3 3 3 4 4 2 0 1 3 3 3 4 4 4 6 7 8 8 9 10 11 11 10 11 12 13 13 15 16 16 16 17 16 17 19 21 21 21 22 23 23 22 21 19
9 9 9 7 10 12 9 8 10 9 7 6 8 8 5 8 9 9 9 7 8 9 9 8 8 7 7 7 7 7 8 7 7 7 8 9 9 10 9 8 8 8 7 6 6 6 6 6 6 5 5 4 5 5 5 4 3 2 2 2 2 2 2 3 4 4 5 5 6 7 8 9 10 11 12 12 13 14 15 16 17 18 18 18 18 18 17 19 21 20 19 19 21 23 22 20 16
8 10 12 9 7 12 9 12 12 7 7 9 10 7 5 9 11 11 10 9 9 9 10 11 10 9 8 8 8 8 8 7 7 8 8 10 10 10 9 9 9 8 7 6 7 7 7 7 7 7 6 6 7 7 5 4 3 3 3 3 3 3 3 4 5 6 6 6 7 7 8 9 9 11 12 13 14 15 16 18 18 18 18 18 19 19 19 19 19 18 17 18 19 22 21 20 19
5 7 10 9 7 9 11 14 11 7 6 8 11 8 5 7 10 12 11 11 12 11 11 13 11 10 10 10 9 9 9 9 8 8 9 11 11 11 11 10 9 9 9 8 8 9 9 9 9 9 8 8 7 6 4 4 4 3 3 2 2 3 3 4 4 5 5 5 6 7 8 8 9 10 11 12 14 14 16 17 17 17 17 17 16 17 17 18 17 15 15 17 18 19 18 19 22
1 3 6 7 7 9 12 13 10 5 3 6 10 9 6 5 7 11 14 13 13 13 13 13 12 12 12 12 11 11 11 10 9 9 10 11 12 12 11 11 10 10 10 10 10 10 11 11 10 9 8 7 6 4 3 3 3 3 2 2 1 1 2 3 3 3 4 5 6 7 7 8 8 9 10 10 11 11 12 13 15 16 16 15 15 15 15 15 15 14 14 15 16 17 18 19 22
2 5 5 6 7 9 10 10 6 3 3 6 8 7 7 7 4 8 13 13 14 16 16 16 15 14 14 14 14 13 12 11 11 11 11 12 13 12 12 12 11 11 11 11 11 12 11 11 10 9 8 7 5 4 3 4 4 4 3 2 1 0 1 2 3 3 3 4 5 6 7 8 8 8 8 9 9 8 9 9 11 14 14 14 15 15 15 15 14 14 14 15 16 16 17 19 22
4 6 8 7 5 6 6 6 3 3 6 8 8 9 7 7 5 6 9 12 14 15 16 16 16 16 15 15 15 14 12 11 11 11 12 14 14 13 13 13 13 12 12 12 12 12 11 10 9 8 7 6 5 4 5 5 5 4 3 2 2 1 1 1 2 2 3 4 5 6 7 7 8 8 8 8 7 7 8 7 9 12 12 12 14 14 14 16 15 15 16 16 17 18 19 19 22
11 9 8 8 5 4 3 3 2 4 8 7 8 11 9 8 5 6 7 11 13 13 13 15 17 17 16 15 14 14 13 11 11 12 13 15 14 14 14 14 14 13 13 13 12 11 11 10 9 8 7 6 5 5 5 4 3 3 3 2 1 1 1 2 3 3 3 4 5 6 6 6 7 7 7 7 7 7 8 7 7 9 10 10 12 13 14 15 15 16 18 18 19 21 21 19 19
11 7 7 6 4 4 4 3 4 6 7 4 4 8 10 9 6 5 6 9 11 10 10 14 18 19 17 15 15 14 13 12 12 11 12 14 13 14 15 14 15 14 14 13 12 12 11 10 10 9 7 7 6 5 4 3 2 2 1 1 2 2 2 2 3 4 4 5 6 6 6 6 7 7 7 7 7 8 8 7 6 7 8 9 11 11 13 15 17 20 20 20 22 22 20 18 19
8 6 8 6 4 5 5 5 5 7 4 3 2 5 8 9 8 9 9 8 9 8 8 11 15 18 17 16 15 14 13 13 13 12 12 13 13 14 16 15 16 15 15 14 13 12 11 10 10 9 9 7 6 5 3 3 2 2 0 1 2 2 3 3 3 4 4 5 5 6 7 7 7 7 8 7 8 8 8 7 7 7 7 8 9 11 13 14 16 18 18 19 20 21 20 20 21
9 8 8 7 5 6 7 6 6 7 3 5 3 3 6 8 7 9 10 6 7 8 8 8 9 14 16 17 16 14 14 14 12 12 12 12 13 16 17 16 16 16 15 15 13 12 11 11 10 9 9 7 5 4 3 2 2 1 1 1 2 2 2 3 3 3 4 4 5 6 6 6 7 7 7 8 8 8 8 7 7 7 7 7 8 10 11 12 13 14 15 16 17 19 22 22 21
9 8 7 7 6 6 6 5 6 7 3 6 5 3 6 6 1 2 1 1 1 5 7 7 6 8 11 14 16 16 16 14 12 13 13 14 16 17 17 17 16 16 16 15 14 13 12 11 11 9 8 6 5 4 3 2 2 1 2 2 2 2 2 2 2 2 3 4 5 6 6 6 7 7 7 8 8 8 8 8 8 8 8 7 8 9 10 10 11 11 12 14 15 16 19 19 19
7 5 7 6 5 6 4 2 3 5 3 3 5 4 5 4 1 4 4 2 3 5 7 8 8 8 9 12 15 15 15 14 13 13 14 15 17 18 17 18 17 16 17 16 14 14 13 11 11 9 8 6 5 4 3 2 2 2 3 2 2 2 2 2 2 2 3 4 5 6 7 7 7 7 7 8 8 9 9 8 8 8 8 8 8 8 9 9 10 11 11 13 14 14 15 16 18
6 6 7 2 3 3 4 1 0 3 7 4 4 5 6 5 4 5 5 5 6 7 8 10 10 10 10 11 13 14 14 15 14 13 14 15 17 17 17 18 18 18 17 16 16 15 14 12 11 10 8 7 6 5 4 3 3 3 3 3 3 2 2 3 3 3 4 5 6 6 7 7 7 7 8 9 10 10 9 9 9 9 8 8 9 9 10 10 11 11 11 12 13 14 15 16 16
4 7 7 5 2 2 4 4 3 4 8 3 3 8 7 4 3 4 6 6 6 7 9 10 10 11 12 11 12 14 15 15 14 14 14 15 17 18 18 18 19 19 18 17 17 16 14 12 11 10 8 7 7 6 4 3 3 4 4 3 3 3 3 3 3 4 5 5 6 7 7 7 8 8 9 9 10 10 10 10 10 10 9 9 10 11 11 12 12 12 12 13 14 14 15 17 17
4 3 6 6 4 5 5 5 5 5 7 4 4 7 7 5 3 4 5 4 3 5 7 8 11 12 12 12 13 14 15 15 14 14 14 14 16 18 18 19 20 19 18 17 17 16 14 12 11 9 8 7 7 5 4 3 4 4 4 4 4 3 3 4 4 5 6 6 7 8 8 8 8 9 10 10 11 11 11 11 12 12 11 11 12 12 12 12 12 13 13 13 14 14 15 17 18
3 3 6 6 5 3 3 4 5 5 6 5 3 4 5 5 2 2 2 2 2 3 5 7 10 11 12 11 12 14 15 15 14 14 14 14 17 20 20 20 20 20 18 17 17 16 14 13 11 10 8 7 7 6 4 4 5 5 5 4 4 4 4 5 5 6 6 6 7 8 8 8 8 9 10 10 11 12 12 13 13 14 14 14 14 14 13 12 12 12 12 13 14 15 16 17 18
8 7 7 7 4 2 2 3 3 5 5 5 4 4 3 4 4 1 1 2 2 3 4 6 7 9 11 11 12 13 14 15 15 14 14 15 18 21 21 20 20 19 19 18 17 16 14 13 11 10 9 8 8 7 5 5 5 5 6 5 5 5 5 6 6 6 7 7 7 8 8 8 9 9 10 11 12 12 13 14 14 15 15 15 15 14 14 12 12 12 13 14 15 15 17 18 19
9 9 9 9 7 4 5 5 4 3 5 4 4 6 3 5 5 3 2 2 3 3 4 5 5 7 9 11 12 13 13 15 15 15 15 15 18 21 21 21 20 19 19 19 17 15 14 13 11 10 9 8 7 7 7 6 6 6 7 6 6 6 6 7 7 7 8 8 8 8 9 9 9 10 10 11 12 13 13 14 15 15 14 14 14 14 12 11 11 12 13 14 15 16 18 19 21
Wind_Direction
141 290 278 273 279 289 271 250 94 89 86 82 81 81 79 86 96 96 100 109 96 85 86 83 80 67 81 95 104 87 35 47 55 84 102 102 114 125 132 128 132 134 130 127 127 128 126 128 127 125 126 128 131 133 134 134 135 134 134 136 136 134 131 129 129 130 129 128 128 129 129 130 127 125 126 126 127 126 125 126 124 123 123 126 126 124 122 119 114 108 103 99 101 101 101 100 98
268 267 272 286 276 280 276 230 88 86 87 82 79 83 97 98 95 91 90 94 91 98 97 89 85 82 91 100 113 97 57 45 57 76 87 107 118 126 133 132 134 134 132 130 131 133 138 138 132 128 129 133 134 134 137 138 139 140 140 140 139 137 135 133 132 134 134 131 132 134 135 134 131 130 131 130 130 129 129 127 127 127 124 121 118 117 115 114 111 108 106 104 103 102 101 100 97
239 267 287 297 269 255 272 215 85 84 85 83 84 87 97 94 88 86 86 92 100 106 99 95 85 76 98 95 83 86 84 73 87 90 94 119 127 132 136 133 134 135 135 134 136 136 142 146 139 133 131 134 135 136 140 141 142 142 144 143 141 138 137 135 133 136 137 135 135 136 135 134 134 135 134 131 131 131 131 131 130 128 124 118 114 113 111 110 109 107 106 105 105 103 102 101 98
207 257 293 298 266 232 293 78 75 78 82 84 87 87 88 86 88 89 92 99 109 112 102 98 78 49 73 89 89 87 95 92 91 99 116 133 130 133 137 134 133 135 137 136 136 135 144 150 144 136 132 135 139 139 142 144 145 144 145 144 141 138 137 138 137 139 139 138 137 136 134 134 134 132 132 131 132 133 132 133 131 127 123 117 113 111 109 107 104 104 104 102 102 102 104 104 102
200 243 285 290 290 339 46 75 71 67 74 84 91 88 90 89 94 96 100 107 112 109 100 100 90 75 68 74 95 98 106 109 105 111 126 129 124 132 136 135 134 134 135 137 134 138 149 146 142 138 134 138 142 141 142 146 147 146 145 144 142 139 139 140 140 141 140 140 138 137 136 134 132 130 128 127 130 132 131 131 129 129 125 117 113 110 108 107 105 104 102 101 102 100 103 104 102
219 240 250 267 297 331 66 84 78 68 64 78 92 91 96 99 100 103 106 106 101 94 93 97 99 100 80 62 70 87 115 120 120 122 127 128 128 132 135 138 137 134 135 141 135 136 148 144 141 139 135 142 144 143 144 145 148 148 146 145 143 140 140 140 140 140 140 140 137 135 134 131 130 128 127 125 126 127 128 127 124 125 122 117 115 112 109 108 107 106 105 102 97 92 97 104 110
263 258 228 241 240 220 91 83 81 76 68 76 90 96 99 106 110 114 114 109 102 94 91 100 107 104 96 91 78 78 110 118 124 128 131 131 131 133 136 138 135 136 139 143 138 138 149 145 140 136 136 144 145 145 145 143 146 147 146 146 143 141 140 140 141 140 140 139 135 133 129 126 125 124 125 124 123 123 124 125 121 118 115 112 108 103 100 98 95 96 98 93 88 77 56 76 129
268 270 256 247 137 117 86 80 82 82 82 81 86 96 103 112 119 121 116 109 106 107 105 110 111 99 97 108 94 94 113 117 122 127 132 133 135 136 139 138 135 139 144 145 142 147 152 143 138 137 137 143 145 147 144 142 143 145 146 145 143 141 140 141 141 140 140 138 134 131 127 124 123 123 125 126 125 124 124 125 123 121 115 108 101 93 87 84 79 70 52 34 46 39 356 347 355
249 250 267 238 101 94 91 88 87 85 89 90 91 101 110 115 118 115 109 103 105 110 110 109 106 103 104 102 100 109 114 118 125 128 134 136 139 141 141 140 137 141 144 143 143 148 151 144 141 142 140 142 145 144 141 141 142 145 146 144 143 142 142 141 141 140 139 135 131 128 126 125 126 127 129 131 131 131 133 134 135 139 139 131 119 107 98 85 82 88 78 46 34 4 322 323 324
241 220 273 213 104 95 97 94 94 94 94 96 101 109 115 115 112 111 108 107 109 105 97 95 102 113 113 107 107 113 120 129 131 132 136 137 140 141 140 138 136 139 140 140 140 144 146 144 145 144 142 141 142 142 141 141 142 144 144 144 143 144 145 142 140 141 139 135 132 129 129 131 134 135 136 137 137 140 144 149 153 157 160 158 158 155 145 134 160 184 204 228 231 241 255 291 302
246 175 254 209 109 96 95 98 100 102 104 102 104 108 112 109 108 108 105 105 105 108 110 107 107 112 113 107 103 113 127 136 137 136 138 138 140 141 140 138 139 139 138 139 140 140 143 144 147 147 145 143 144 145 144 144 144 144 146 146 144 145 145 142 142 142 140 135 133 132 132 138 142 143 143 143 143 148 153 157 162 162 165 172 180 180 185 228 234 246 271 272 258 250 248 252 266
274 132 214 153 97 96 100 101 101 107 111 110 112 110 109 111 113 109 105 110 112 117 126 123 119 120 116 110 110 128 137 141 139 138 139 140 141 141 140 140 143 141 139 141 138 140 144 145 149 151 151 150 149 149 150 150 149 149 150 150 149 149 147 146 146 144 143 138 136 135 136 142 141 139 142 149 151 157 165 170 177 174 180 185 192 202 244 268 275 278 281 284 281 275 269 262 264
282 7 213 114 93 104 104 104 108 116 116 112 119 119 118 112 109 108 106 105 102 105 110 123 134 124 111 114 125 138 142 143 142 140 142 144 141 142 142 141 142 140 139 140 136 141 145 146 153 153 155 158 156 156 157 156 155 157 156 156 158 158 156 156 154 149 149 148 145 143 151 156 153 154 157 166 171 175 191 205 210 202 220 235 238 269 285 284 293 298 300 298 293 294 287 279 276
281 325 286 123 122 110 103 115 122 120 114 114 124 129 123 93 99 112 114 105 88 95 102 118 135 118 115 126 137 149 147 145 147 144 144 145 143 143 144 143 142 139 138 140 139 144 147 150 156 157 159 162 161 160 160 161 162 162 161 163 165 168 169 167 165 160 159 160 158 160 173 182 179 183 184 189 197 204 221 234 237 229 250 274 273 286 294 291 297 302 307 306 301 305 299 293 287
282 314 260 138 132 130 113 119 117 111 117 126 131 130 115 94 106 102 92 100 102 112 114 119 135 132 144 152 152 153 148 147 149 146 145 145 145 142 141 144 145 143 141 144 145 147 152 152 156 159 161 162 162 159 163 169 168 166 166 169 171 174 177 176 174 172 174 174 177 186 195 204 204 206 209 210 218 227 236 247 260 253 255 276 280 285 290 289 292 295 302 306 304 306 302 298 288
273 291 234 145 133 136 130 135 119 114 124 132 136 135 119 102 95 75 70 101 114 124 116 109 135 155 151 154 146 146 148 148 149 146 146 145 146 144 142 146 149 150 149 151 152 154 156 154 156 160 163 163 161 161 168 173 172 171 172 174 178 179 182 182 181 183 186 190 201 213 216 221 225 230 233 233 240 244 245 247 252 251 255 269 277 284 286 287 291 295 298 300 300 301 300 297 286
248 259 206 138 130 124 137 160 116 112 125 136 145 142 124 110 93 84 96 111 116 115 76 78 101 114 127 133 135 141 146 148 149 148 147 149 152 150 148 151 155 156 157 158 159 160 162 161 162 162 166 164 160 164 168 171 175 176 177 180 183 185 189 191 191 194 196 203 215 223 226 230 236 247 254 251 252 257 259 257 254 256 261 267 276 283 285 286 293 297 297 296 296 297 298 293 283
223 232 169 122 108 109 122 116 92 118 131 138 148 140 125 122 115 117 114 107 108 102 92 93 93 96 109 122 132 139 144 149 153 151 152 156 157 157 157 160 163 164 164 165 166 168 170 169 170 168 168 166 163 166 165 169 177 179 182 185 189 192 198 201 199 200 201 209 219 224 224 229 239 249 260 261 259 263 268 269 265 266 269 273 278 281 283 284 290 295 298 298 295 298 304 290 271
228 241 128 97 92 98 95 99 102 124 128 132 141 132 122 122 126 145 130 113 117 106 106 111 106 108 115 125 135 139 145 152 157 156 157 161 162 164 165 167 170 171 170 170 172 174 176 175 177 175 171 174 172 172 171 171 175 179 182 185 194 198 204 208 203 203 206 208 214 218 219 228 240 247 254 259 261 266 272 275 274 273 274 277 277 278 282 284 290 294 295 295 293 296 296 274 259
226 257 106 89 97 106 97 105 105 105 121 130 127 117 111 116 132 160 137 124 125 112 119 127 124 130 131 134 140 143 150 153 159 163 161 162 166 168 169 171 174 176 176 175 174 177 181 180 181 180 179 181 180 180 179 175 176 180 182 187 196 201 207 210 210 213 215 216 215 218 224 233 243 249 257 262 263 266 272 277 279 279 277 279 280 280 280 284 292 294 293 293 288 277 265 258 261
229 319 87 98 110 110 96 101 102 102 118 125 122 118 110 111 114 130 151 141 115 106 128 138 137 141 141 141 146 150 153 154 162 167 165 167 171 173 173 175 178 179 179 178 177 179 183 183 183 183 183 186 184 186 186 180 180 182 186 195 203 207 212 214 218 222 226 228 224 226 230 233 240 242 249 256 257 258 263 270 277 278 275 276 278 279 278 279 286 288 285 283 276 266 266 268 266
109 61 76 95 111 104 97 98 102 109 117 122 123 118 112 108 88 75 96 98 81 88 119 132 138 144 144 146 149 153 156 159 166 169 171 173 176 178 176 178 181 180 182 184 183 183 185 186 187 187 187 189 190 191 192 186 185 190 198 206 211 212 218 219 222 227 232 232 231 237 239 239 242 243 245 247 249 252 258 263 269 272 274 276 275 276 276 275 279 281 278 275 276 277 280 278 269
135 98 85 88 101 103 103 105 110 118 118 118 117 114 114 104 82 68 66 72 76 89 114 128 136 143 144 147 151 155 159 164 168 171 176 177 178 181 178 180 183 182 186 188 186 185 187 190 190 191 191 193 196 198 198 194 193 200 205 212 216 217 224 229 233 236 239 240 243 248 250 254 254 255 255 254 255 255 258 262 265 265 268 272 274 278 278 274 275 280 283 282 281 281 282 279 271
143 113 103 95 102 106 109 115 120 115 110 112 118 118 114 102 92 82 79 82 90 101 118 128 134 142 145 149 155 158 160 164 169 172 177 181 181 181 180 182 183 184 189 191 189 187 189 192 192 193 194 196 200 203 205 205 205 209 210 217 225 230 237 241 245 249 252 253 255 254 254 260 263 265 265 266 266 262 263 265 266 267 266 266 267 273 279 276 273 276 283 284 282 282 282 277 269
122 118 115 108 106 110 116 121 119 111 112 115 116 109 98 100 99 90 91 96 102 112 123 128 133 142 147 153 155 156 160 163 167 170 175 180 182 182 182 183 184 187 190 193 193 192 193 193 193 194 196 199 201 204 209 212 215 219 220 225 233 240 245 249 256 261 265 263 262 260 257 260 264 269 271 273 272 266 266 266 267 273 273 272 268 267 270 272 272 274 279 280 279 280 281 276 269
116 129 127 122 116 119 124 122 116 112 115 116 116 111 104 108 103 91 97 106 112 120 126 130 138 143 148 153 152 155 162 163 165 168 170 175 179 183 184 183 187 191 193 196 196 196 197 195 196 197 199 202 203 206 212 215 221 225 225 228 233 238 244 252 259 261 265 267 266 263 260 262 266 270 271 272 271 271 272 272 271 272 272 273 273 271 268 266 269 271 270 270 272 275 278 279 275
125 132 125 123 119 123 124 118 112 107 111 118 119 115 114 127 123 105 109 116 122 126 128 134 140 143 147 149 149 157 164 163 163 165 165 169 176 182 186 186 188 192 193 196 199 199 199 199 200 201 202 204 206 210 214 218 224 227 230 233 237 241 247 253 257 261 264 266 265 261 259 260 261 262 264 263 264 269 271 274 275 272 272 273 276 276 269 264 268 271 265 264 268 270 274 278 279
133 129 122 123 122 124 127 122 116 111 114 119 119 115 116 124 117 117 125 129 129 127 130 136 136 138 143 144 148 159 164 163 165 168 170 170 175 180 183 186 187 190 193 198 201 200 201 204 205 205 207 207 210 214 218 222 226 231 235 239 243 246 250 256 260 265 266 266 264 262 262 263 263 260 260 260 260 264 265 267 267 264 268 272 278 281 276 270 272 274 271 267 263 260 264 269 273
140 136 128 130 131 129 134 132 124 125 126 127 131 122 110 104 109 121 133 137 134 131 132 134 133 134 140 142 146 159 166 168 172 175 174 170 173 177 178 182 185 187 192 198 201 204 207 208 209 211 211 212 214 218 222 226 229 234 239 240 242 244 249 254 257 260 260 262 262 265 267 267 268 265 262 262 261 261 264 266 265 265 265 265 274 281 282 281 279 277 277 273 265 258 258 259 264
150 151 141 141 147 139 145 147 133 138 135 140 181 120 98 111 121 129 141 143 140 136 135 136 138 139 142 146 149 158 165 171 176 174 172 170 169 173 177 180 183 188 192 194 200 207 210 209 211 213 212 215 217 220 224 227 229 233 238 239 238 240 246 249 251 255 258 261 264 268 270 266 265 265 264 265 264 264 266 269 271 273 271 265 267 274 278 281 281 280 277 273 267 261 257 254 255
158 162 160 165 172 149 156 162 153 156 145 181 249 110 103 125 132 137 147 151 148 140 139 142 142 145 148 151 156 159 165 173 177 173 172 173 170 169 176 179 183 191 194 193 198 203 208 209 210 212 212 215 217 220 224 226 227 229 236 241 242 245 248 251 255 257 260 263 266 269 270 265 262 261 262 262 262 263 264 263 264 268 270 268 267 267 265 267 274 278 276 272 268 261 256 253 250
167 181 177 179 183 152 161 174 178 173 146 204 260 92 108 129 137 142 151 158 158 146 143 147 147 151 153 157 163 162 165 174 180 179 177 178 180 174 174 183 187 192 195 192 194 197 202 206 206 209 209 212 216 218 222 225 226 230 238 245 247 251 252 253 256 258 261 263 266 269 268 266 264 261 259 258 257 257 256 257 259 260 262 265 266 264 261 260 262 267 268 271 269 262 254 249 247
185 206 183 177 187 162 165 180 188 199 160 196 256 103 118 134 141 144 153 163 164 153 149 152 153 155 156 162 168 167 167 172 182 187 184 184 186 183 181 186 189 195 198 194 194 193 196 200 202 206 205 207 210 211 217 220 223 232 242 248 250 254 258 261 262 263 264 266 270 273 271 268 266 261 260 260 257 253 252 253 256 256 257 261 264 263 264 263 258 257 261 265 264 261 257 250 242
193 216 190 182 187 170 166 175 181 202 209 190 221 155 118 131 146 149 155 165 168 162 157 158 160 159 161 170 172 173 175 175 181 185 187 190 187 188 190 189 190 195 198 196 195 192 191 193 193 196 194 193 195 199 206 207 214 231 243 255 259 263 270 271 268 267 266 268 273 277 274 269 268 266 263 262 259 256 253 252 253 256 258 261 263 264 265 263 260 257 259 260 256 254 256 254 243
194 203 189 183 187 183 176 169 173 190 210 199 193 159 126 136 148 153 157 166 174 169 163 163 164 164 166 176 178 176 180 180 180 182 185 190 190 194 198 197 196 194 194 192 190 189 189 190 191 191 188 187 190 192 197 196 207 229 250 264 263 268 277 273 265 259 259 261 266 273 273 269 272 274 269 261 257 255 254 253 255 259 261 261 264 266 266 264 261 259 258 257 253 247 248 252 251
195 197 189 183 188 194 184 166 171 186 207 209 199 166 146 149 150 156 159 162 177 174 168 169 168 170 171 179 184 177 185 182 172 175 181 187 192 197 198 198 198 191 186 182 183 186 189 191 194 194 193 192 191 190 193 197 217 243 262 268 263 266 274 270 259 250 251 255 260 269 272 269 270 274 271 260 255 256 256 257 258 260 259 260 263 266 266 265 261 258 255 254 250 246 246 249 253
195 200 196 191 193 189 181 175 171 190 212 204 200 181 158 157 153 159 161 160 178 182 175 179 176 177 175 180 183 178 187 176 162 176 186 191 194 193 195 195 191 185 180 179 180 184 190 195 199 200 197 194 191 188 187 197 238 263 263 266 270 277 277 268 261 259 267 268 266 272 275 273 271 274 274 260 254 256 258 258 259 258 256 256 259 261 264 264 261 260 258 256 255 253 251 251 251
202 206 204 203 203 181 172 179 174 192 219 191 189 200 167 162 157 157 164 168 178 183 183 186 182 181 180 182 183 179 182 172 171 187 191 195 194 191 194 191 187 183 179 178 178 179 186 196 203 206 201 189 181 181 190 205 237 252 253 268 286 297 295 295 296 294 291 283 278 282 281 281 284 284 281 267 259 257 255 257 257 257 257 255 257 260 262 263 262 262 261 260 259 257 256 256 251
204 205 208 211 191 149 154 176 178 187 222 194 183 204 170 160 161 159 175 180 174 180 186 188 185 182 184 186 185 181 181 183 189 192 189 190 189 188 190 189 186 180 174 172 173 174 177 184 192 198 198 182 170 173 192 203 203 206 220 265 306 312 310 310 312 306 298 293 292 293 287 282 284 284 284 274 262 258 257 260 260 259 259 256 257 262 262 263 264 262 259 259 259 257 256 258 253
212 206 209 210 172 173 187 181 180 187 225 224 187 203 175 161 173 171 183 185 168 174 182 188 193 194 194 192 189 186 186 188 191 191 184 180 180 184 187 187 182 175 170 167 165 164 161 164 167 168 174 165 156 154 155 157 157 164 176 221 307 318 315 314 320 312 305 304 298 294 292 288 286 287 290 285 272 266 263 262 263 261 258 257 259 263 265 266 265 262 261 258 256 255 255 257 254
218 218 225 223 181 204 223 170 168 185 212 222 194 203 195 181 192 185 183 188 180 179 184 191 196 200 204 197 192 193 191 188 188 188 178 174 177 180 180 179 176 172 169 161 151 149 148 149 153 157 157 146 139 134 129 128 122 108 64 23 5 357 348 344 345 332 324 320 306 299 298 295 290 287 288 286 279 275 269 266 266 263 260 260 260 263 265 267 266 262 261 259 255 255 257 259 257
206 214 232 250 225 224 211 158 165 194 204 204 200 216 219 194 200 195 181 188 193 188 192 198 195 193 200 202 198 195 192 187 187 186 178 176 176 173 172 172 173 169 159 148 140 138 139 140 143 146 146 139 133 130 125 116 102 78 46 24 10 1 356 356 352 339 334 328 318 313 307 300 294 288 286 283 279 275 271 268 266 264 263 262 261 261 264 265 264 263 260 259 260 260 261 262 261
201 194 213 240 249 221 182 166 185 218 206 193 204 229 236 195 202 201 190 192 197 196 201 204 197 193 199 203 202 196 191 186 184 185 180 177 175 172 171 171 173 167 150 140 137 135 136 138 139 138 136 135 132 127 116 106 98 78 55 44 24 4 355 349 343 336 335 331 325 320 314 310 304 299 294 288 284 281 276 273 269 266 266 267 266 264 267 268 267 269 264 261 265 265 262 262 263
195 113 175 202 217 197 181 188 205 215 171 180 203 224 243 229 213 200 195 198 200 201 207 209 202 199 200 202 201 197 194 187 181 183 181 177 176 174 171 170 171 162 147 143 143 142 142 141 140 139 136 132 130 124 109 105 110 109 99 90 77 26 353 337 332 335 338 337 332 329 323 320 316 313 309 304 301 296 289 281 274 270 268 272 273 267 267 270 270 273 271 267 265 261 257 259 265
64 87 143 167 194 193 190 200 202 178 187 207 204 211 241 245 212 188 197 205 210 210 208 209 206 203 201 201 201 199 195 191 186 185 182 179 177 174 171 168 163 155 151 151 149 147 145 143 142 140 136 131 132 131 128 132 132 131 127 115 122 99 357 335 332 340 345 341 336 334 329 325 325 325 323 323 325 321 306 292 281 277 272 269 272 269 264 266 268 270 271 269 264 258 255 255 261
114 118 123 125 156 177 188 209 202 190 224 230 207 204 243 251 201 183 204 212 216 216 211 208 206 204 202 202 201 198 194 192 191 187 184 183 180 175 170 163 158 154 154 152 149 150 148 146 147 144 140 138 142 147 144 142 136 130 129 121 120 86 12 338 337 342 343 339 332 329 325 323 326 327 327 329 334 332 320 307 294 289 284 270 270 273 270 269 271 271 271 271 266 263 260 257 258
140 136 124 123 132 146 180 217 210 218 230 232 207 203 234 261 225 188 206 221 222 220 214 208 205 204 203 201 201 198 194 192 193 190 186 184 179 171 167 161 157 155 154 153 152 153 150 151 154 152 151 152 155 155 152 148 138 129 126 113 79 32 8 341 342 341 341 339 332 328 321 314 318 319 323 327 329 333 328 314 300 297 295 284 280 283 281 280 280 278 276 276 274 269 264 262 263
155 155 151 146 136 161 185 181 199 234 234 215 196 205 224 250 255 217 209 219 225 229 220 208 205 204 201 200 200 196 193 192 189 189 186 179 172 168 167 163 158 157 157 158 158 156 157 160 162 161 161 163 162 162 161 156 151 143 122 52 17 7 354 344 342 343 346 343 334 331 322 312 313 314 318 323 324 330 328 320 313 304 298 291 286 284 281 282 285 285 281 278 279 277 270 267 268
183 179 177 183 175 184 205 197 208 236 226 125 149 212 228 246 259 260 255 229 218 226 229 218 209 204 199 196 197 193 192 192 188 188 185 179 174 171 169 165 163 162 162 164 164 162 165 169 170 168 165 164 163 165 171 174 175 165 135 354 351 345 342 339 337 342 347 340 331 326 320 313 312 313 318 321 321 327 327 323 321 313 303 295 288 282 281 282 285 288 285 280 280 279 276 272 271
200 192 194 210 199 200 222 214 222 243 209 123 139 202 247 260 251 251 264 258 224 215 221 227 217 210 204 196 193 191 190 192 188 186 185 183 182 177 172 169 168 167 167 169 168 168 171 176 178 173 164 163 166 170 179 186 187 193 258 306 325 328 329 329 328 338 340 332 323 315 312 307 305 309 314 316 317 321 324 321 316 312 309 304 296 291 291 288 286 287 284 281 278 278 280 279 275
202 202 209 223 223 226 236 228 236 245 190 130 145 192 245 261 184 139 265 6 213 212 214 221 219 215 209 198 194 191 188 189 187 186 186 183 182 179 174 172 171 170 172 174 172 171 177 181 181 175 167 169 175 181 190 196 208 236 255 269 294 306 316 321 314 322 321 317 311 304 299 297 299 305 308 309 310 310 313 315 314 312 311 310 306 301 299 297 294 291 287 284 282 282 283 282 279
191 209 221 231 246 235 246 311 294 286 279 175 181 217 243 259 121 142 160 150 173 199 208 214 217 214 209 203 200 194 187 185 185 185 184 181 180 180 175 173 174 175 176 178 175 175 182 185 183 178 173 176 184 190 195 203 228 242 244 256 276 279 292 302 296 303 307 303 302 296 292 292 294 299 302 302 302 302 303 305 307 308 310 312 311 307 303 302 301 297 292 288 288 290 288 284 282
166 204 217 206 348 261 236 266 13 289 277 234 187 234 240 241 237 193 190 225 219 207 210 214 216 212 209 208 203 197 188 183 183 184 182 179 179 179 178 177 178 179 181 182 179 179 186 187 183 178 176 182 191 194 196 207 230 240 241 248 264 272 279 287 292 304 309 305 303 299 293 290 290 293 298 300 299 298 297 298 300 301 305 309 309 308 305 303 303 300 297 296 296 296 294 292 288
193 208 184 125 50 270 246 249 212 230 257 242 191 242 246 231 231 170 178 233 233 210 214 215 211 209 209 208 202 197 188 180 180 182 180 179 178 179 181 181 181 183 184 183 180 182 188 189 185 180 181 189 196 196 201 216 235 243 242 243 253 264 270 275 286 299 309 312 312 312 305 294 289 291 296 299 299 299 297 297 298 300 303 306 305 308 307 305 305 305 303 303 302 301 298 296 291
272 244 158 164 220 209 197 240 256 252 266 266 203 227 250 238 213 146 173 231 256 210 206 211 210 208 209 206 198 194 187 178 178 182 181 179 178 180 182 183 183 184 184 183 182 183 189 191 186 183 185 194 201 200 207 229 243 243 241 243 248 254 260 267 279 292 303 310 311 314 313 304 294 291 293 296 297 299 300 300 300 301 305 306 306 309 309 307 307 307 308 308 309 309 305 300 296
249 251 181 204 251 236 192 224 265 275 280 283 227 206 230 219 174 119 175 238 276 219 201 211 217 211 208 204 194 190 187 180 179 181 181 180 181 182 184 185 183 182 183 184 185 188 192 190 184 184 188 196 205 208 216 236 247 244 243 245 245 248 253 260 273 285 294 301 304 305 309 309 302 296 295 295 296 298 298 299 299 299 301 305 311 314 312 310 309 309 311 310 311 313 309 306 302
195 213 200 197 206 244 239 222 248 273 279 286 270 255 245 127 120 158 218 212 226 219 213 219 220 212 206 200 192 190 188 184 182 182 182 180 181 182 185 186 183 181 184 188 189 192 195 192 187 189 195 203 211 214 222 239 247 244 244 247 249 252 255 261 273 282 288 290 292 294 300 306 305 301 300 296 296 298 296 295 295 294 296 301 309 314 313 312 309 309 312 310 310 312 310 310 308
201 207 207 204 195 206 232 220 201 231 266 277 279 281 292 105 130 189 194 197 205 208 232 230 220 212 203 197 194 190 189 188 185 185 184 179 179 182 184 186 183 181 186 191 191 190 193 194 195 200 207 216 221 220 224 235 243 242 243 247 252 255 258 265 273 280 285 286 288 291 294 300 303 303 302 298 296 298 296 294 292 290 290 294 301 305 307 309 307 309 314 313 312 314 313 313 313
Height
758 759 758 757 756 755 753 752 767 763 764 788 790 795 796 781 783 789 792 789 791 789 780 782 783 784 789 796 802 802 803 804 807 813 817 811 809 815 817 819 821 822 824 825 827 828 829 830 830 831 833 835 835 834 835 835 836 836 838 839 840 841 841 843 844 845 846 847 849 850 852 853 854 855 855 856 857 857 858 860 860 861 862 863 862 862 862 862 862 862 862 862 863 864 864 865 865
760 760 757 757 754 756 755 747 771 778 779 800 797 797 793 781 786 792 791 789 792 787 779 782 784 786 787 789 791 798 805 802 799 802 804 806 811 817 818 821 822 823 825 826 828 830 831 832 832 833 834 836 836 836 836 837 838 839 840 841 842 843 844 846 847 848 849 850 851 853 854 854 855 855 856 857 858 859 860 861 862 862 863 863 863 863 863 863 863 863 863 863 864 864 865 865 865
761 760 757 758 753 753 751 748 773 786 793 809 804 792 785 788 792 790 787 786 786 781 782 784 787 789 788 795 796 802 811 802 797 799 803 809 812 816 820 822 823 825 825 827 829 830 832 833 835 836 836 837 837 837 838 839 840 841 842 843 844 845 846 848 849 851 852 853 854 855 855 856 856 856 857 858 859 860 861 862 862 863 863 864 864 864 864 864 864 864 864 864 865 865 865 865 865
762 761 758 757 755 755 754 761 776 783 797 808 805 792 786 793 791 788 785 784 782 781 786 788 794 790 789 804 802 804 811 805 802 802 806 811 812 817 821 822 825 826 826 827 829 831 832 834 835 837 838 839 840 840 839 840 841 842 843 844 845 846 848 849 851 852 853 854 855 856 856 857 857 857 858 859 860 860 861 862 863 863 864 864 864 864 865 865 865 865 865 865 865 865 865 865 865
762 762 759 758 762 760 758 769 777 783 795 798 802 796 788 792 790 790 786 783 782 783 787 789 800 793 792 801 798 806 812 807 806 803 807 811 815 819 821 824 826 827 828 828 829 831 832 834 835 837 839 840 841 842 842 842 843 844 845 846 847 848 849 851 852 853 855 855 856 857 857 858 858 858 859 860 861 861 862 863 863 864 864 864 864 865 865 865 865 865 865 865 865 864 864 864 864
762 762 760 758 760 758 765 779 786 792 788 784 796 794 787 789 789 791 788 786 782 783 786 789 798 798 802 802 797 805 807 807 808 806 808 812 817 820 823 825 827 829 829 829 831 831 832 834 836 837 839 841 842 843 844 844 845 846 847 848 849 850 851 852 854 855 856 856 857 858 859 859 859 859 860 861 862 862 863 863 864 864 864 865 865 865 865 866 865 865 865 865 865 864 864 864 864
761 763 761 763 761 758 775 787 790 797 785 777 789 789 787 788 787 791 792 792 790 787 787 791 792 799 810 805 805 807 804 807 807 809 812 814 819 821 824 826 828 830 831 832 832 832 833 835 836 838 839 841 843 845 845 846 847 847 849 850 851 852 853 854 855 856 857 858 859 859 860 860 860 860 861 861 862 863 864 864 864 864 865 866 866 866 866 866 866 866 866 866 866 865 865 864 864
762 763 758 767 770 764 780 788 788 793 785 777 780 784 786 786 785 789 793 794 796 794 793 793 790 804 812 803 813 812 806 809 808 813 815 816 820 822 825 827 830 831 833 833 834 834 834 835 837 838 840 842 844 845 846 847 848 849 850 851 852 853 854 855 856 857 858 859 860 860 860 860 861 861 861 862 862 863 864 864 864 865 866 866 867 867 867 867 867 867 867 867 867 866 866 865 865
760 763 760 767 775 775 784 790 790 788 785 781 781 784 784 783 784 788 793 794 795 795 796 793 791 808 814 808 817 812 808 813 812 816 816 819 821 823 826 827 830 831 834 835 835 836 836 838 839 841 842 844 845 846 847 847 849 850 851 852 853 854 855 856 857 858 859 860 860 861 861 861 861 861 862 862 863 863 864 864 864 865 866 867 867 867 867 867 867 867 867 867 867 867 866 866 866
760 762 765 769 776 786 791 792 793 790 786 782 782 783 782 781 782 786 792 795 794 797 797 792 795 808 812 815 818 812 812 815 815 818 818 821 822 824 827 828 831 832 834 836 837 838 839 840 840 843 844 845 846 846 847 848 850 851 852 853 854 855 856 857 858 859 860 861 861 862 862 862 862 861 862 862 863 864 864 864 865 866 866 867 867 867 867 867 867 867 867 866 866 866 866 866 866
766 761 763 775 783 793 795 794 795 791 786 782 782 780 778 779 783 787 791 796 795 799 799 795 805 808 810 817 818 814 815 816 817 819 820 822 824 825 827 830 832 833 835 836 838 840 840 842 843 844 844 846 846 847 848 849 851 852 853 854 855 856 857 858 859 861 862 862 862 862 862 862 862 862 863 863 864 864 864 865 865 866 866 867 866 866 866 866 867 866 867 866 866 866 866 866 865
774 766 764 782 789 790 789 793 797 792 788 787 788 780 775 778 784 790 793 797 796 800 799 797 805 806 815 822 818 817 816 818 819 820 823 823 825 827 828 830 832 834 836 837 839 841 842 843 844 845 846 847 848 849 850 851 852 853 854 855 856 857 858 860 861 862 863 863 863 863 863 863 863 863 864 864 865 865 865 865 866 867 866 866 866 866 866 866 866 866 867 866 866 866 866 866 866
773 769 770 785 783 783 785 791 796 794 794 790 788 780 775 779 785 789 792 797 797 802 799 794 797 801 817 822 817 817 816 819 820 823 825 825 827 828 830 831 833 835 837 839 841 842 843 844 845 846 847 848 849 850 851 852 854 855 856 857 858 859 860 861 862 863 864 864 864 864 864 864 864 864 865 865 866 866 865 865 866 866 866 866 866 866 866 866 866 866 866 866 866 866 866 866 866
767 764 770 786 781 780 784 790 793 796 799 788 783 779 776 781 783 782 788 802 804 801 797 790 792 804 818 822 821 819 817 821 822 824 826 827 829 829 832 833 835 836 838 840 842 843 844 846 847 847 848 849 850 852 853 854 855 856 857 858 859 860 861 862 863 864 864 864 865 865 865 865 865 865 866 866 866 866 865 866 866 866 866 866 866 866 866 866 866 866 866 865 865 865 865 865 865
762 761 766 782 785 785 786 787 787 795 799 786 781 779 781 782 778 782 786 800 804 791 791 791 792 805 815 820 823 816 815 821 822 825 826 829 830 831 833 834 836 838 839 841 842 844 845 847 847 848 849 850 852 853 855 855 857 857 858 859 860 861 862 863 864 865 865 865 865 865 866 866 866 866 866 866 866 866 865 865 866 866 866 866 866 866 866 865 865 865 865 864 864 864 864 864 864
756 760 769 781 787 790 788 783 783 794 795 783 780 777 786 786 777 787 784 788 798 790 792 797 794 799 804 808 813 812 816 821 823 826 827 830 831 832 834 835 838 838 840 842 843 845 845 847 848 849 850 851 853 854 855 856 857 858 859 860 861 862 862 863 864 864 865 865 866 866 866 866 867 867 867 867 866 866 865 865 865 866 866 866 865 865 865 865 864 864 864 864 863 863 863 862 863
755 765 776 784 786 788 786 782 783 791 789 782 781 778 790 794 783 786 780 781 796 797 797 798 793 793 797 801 806 812 818 822 824 827 827 830 832 833 834 835 837 838 841 842 843 845 846 848 848 850 850 851 853 854 855 856 857 858 859 860 860 861 861 862 863 864 864 864 865 865 866 867 867 867 867 867 867 866 866 865 865 865 866 865 865 865 864 864 864 863 863 863 862 861 861 861 861
763 771 777 784 784 782 777 775 776 778 783 784 782 780 788 797 792 786 785 791 797 800 801 799 797 796 798 803 809 815 819 823 824 826 828 830 831 831 833 835 837 838 840 842 844 845 846 848 848 850 850 851 853 854 855 855 856 858 859 859 860 861 860 861 862 862 863 863 864 864 865 866 866 867 867 867 867 866 866 865 865 865 865 865 864 864 864 863 863 863 862 861 861 860 860 859 860
767 767 773 781 777 773 767 767 769 770 778 782 780 779 784 792 792 786 793 802 800 805 808 804 806 806 806 809 813 817 820 823 825 826 828 829 830 831 832 834 837 838 840 842 843 845 846 847 848 849 850 851 852 853 854 855 856 857 858 859 859 860 860 860 861 862 862 863 863 863 864 864 865 865 865 866 866 866 865 865 865 865 865 864 864 863 863 863 862 862 861 861 860 859 859 859 859
762 762 776 779 769 770 766 764 767 765 772 781 783 781 784 788 786 786 794 801 800 806 810 809 814 813 812 813 814 818 820 823 825 826 828 829 831 831 832 834 835 838 840 841 842 845 846 847 848 849 850 851 852 853 854 855 856 857 858 858 859 859 860 860 861 862 862 862 862 863 863 863 863 863 863 864 864 864 864 864 864 863 864 864 863 863 863 862 861 861 860 860 859 859 858 858 858
759 761 774 773 765 772 770 764 765 764 770 779 783 784 789 787 783 787 792 800 803 803 804 806 812 812 811 814 815 818 820 822 825 826 827 829 831 832 833 834 836 837 839 841 842 844 845 846 848 849 850 850 852 853 854 855 856 857 858 857 858 858 859 860 861 861 862 862 862 862 863 862 862 862 862 862 863 863 863 863 863 863 863 863 863 862 862 862 861 861 860 859 859 859 858 858 857
763 766 768 767 765 774 773 765 767 768 771 778 783 787 790 786 786 790 791 801 805 798 798 801 806 809 809 812 815 818 820 822 823 825 827 828 830 831 833 835 836 837 839 841 842 843 844 846 847 848 850 850 851 852 854 855 856 857 857 857 857 858 859 859 860 861 861 862 862 862 862 861 861 861 861 861 861 861 862 862 862 862 862 863 863 863 862 861 861 860 860 859 858 858 858 857 857
769 774 768 766 765 773 773 767 770 769 773 782 784 785 785 790 797 794 793 801 799 793 795 800 805 807 809 812 814 817 819 821 822 824 826 827 829 830 832 834 835 837 838 840 841 843 844 845 847 847 849 850 851 852 854 854 855 856 856 856 857 857 858 859 859 860 861 861 861 861 861 861 861 861 861 861 861 861 861 861 861 861 861 861 862 863 862 860 860 859 858 858 857 857 857 857 856
768 778 773 769 767 772 773 770 771 769 776 781 778 782 786 796 802 797 799 801 797 796 797 800 805 808 811 813 814 816 818 820 821 823 826 827 829 830 832 833 835 837 838 839 841 842 843 844 846 847 848 849 850 852 853 854 855 855 856 856 857 857 858 858 859 859 860 860 860 860 860 860 860 861 861 861 861 860 860 860 860 860 859 859 860 861 861 860 859 858 857 857 857 857 857 856 856
769 778 776 771 771 772 771 770 772 772 776 777 778 788 791 794 797 801 805 802 799 799 800 802 806 809 812 814 815 817 818 820 821 823 825 827 828 830 832 833 835 836 837 838 840 841 842 844 845 846 847 848 850 851 852 853 854 854 855 856 856 857 857 857 858 859 859 859 859 859 860 860 860 860 861 860 860 860 859 859 858 858 858 858 858 858 859 859 858 856 856 856 856 856 856 855 855
771 774 775 774 776 773 771 773 774 775 776 778 787 795 795 790 795 807 806 802 802 800 803 805 807 811 813 814 815 818 819 819 821 822 825 826 828 830 831 833 834 835 836 837 839 840 841 843 844 845 847 848 849 850 851 852 853 853 854 854 855 856 856 857 857 858 858 858 859 859 859 859 859 859 859 859 859 859 858 857 857 857 857 857 857 856 857 858 856 855 855 855 855 855 855 854 854
768 770 773 774 777 774 773 777 776 777 779 781 792 799 797 789 796 814 809 800 802 803 807 808 809 813 813 814 816 818 820 819 821 823 824 826 828 829 830 832 833 834 836 837 838 840 841 842 843 844 846 847 848 849 850 851 851 852 852 853 854 855 855 856 856 857 857 857 858 858 858 858 858 858 858 857 857 857 856 856 855 855 856 857 857 856 856 856 855 854 853 853 853 853 854 853 853
767 770 777 778 777 777 776 780 780 781 785 784 789 798 798 793 801 814 808 801 803 806 810 809 811 814 813 815 817 819 820 820 823 823 824 826 827 829 830 831 833 834 835 836 838 839 840 841 843 844 845 846 847 848 849 850 850 851 852 852 853 854 854 855 855 856 856 856 856 856 857 857 857 856 856 855 854 855 854 854 854 854 854 855 857 858 857 856 854 853 852 852 852 852 851 851 851
768 770 785 788 782 786 783 781 781 784 790 782 784 802 807 805 809 809 804 802 803 806 811 811 812 814 814 816 817 819 820 821 823 823 824 825 827 828 829 831 832 833 834 836 837 838 840 841 842 843 844 846 846 847 848 849 850 850 851 851 852 853 853 854 854 854 854 854 854 854 855 855 855 854 854 853 853 853 852 852 852 852 852 852 853 856 857 856 854 852 851 851 850 850 850 849 849
772 772 784 793 794 797 788 782 783 785 790 780 788 815 821 813 810 806 802 802 805 810 812 812 813 814 815 817 818 819 819 821 822 823 824 825 827 829 829 832 832 833 834 835 837 838 839 840 841 842 843 845 845 846 847 848 849 849 850 850 851 852 852 852 852 852 852 852 852 852 853 852 852 851 851 851 851 851 850 849 849 848 848 848 849 851 853 855 854 852 851 850 849 849 848 847 847
776 781 784 791 804 805 789 783 787 790 790 781 791 817 821 814 809 804 802 802 806 811 812 811 813 813 815 817 818 819 819 821 822 822 824 825 827 829 830 831 832 834 834 835 837 837 839 839 840 841 842 843 844 845 846 847 848 848 849 849 850 851 851 851 851 851 851 850 851 850 850 849 849 848 848 848 847 847 847 846 846 845 845 846 848 848 849 850 852 852 850 849 848 847 846 846 845
779 793 797 793 799 804 793 785 786 791 790 781 791 813 818 813 807 802 801 802 805 810 811 811 813 814 815 816 817 819 818 819 821 822 824 825 827 828 829 831 831 833 834 835 836 837 838 838 839 840 841 842 843 844 845 846 847 847 848 848 849 850 850 850 849 849 849 849 848 848 848 847 846 846 845 845 844 844 843 843 842 842 842 843 844 846 846 847 847 848 848 847 847 846 845 844 843
785 791 801 799 798 804 801 791 783 787 791 786 791 808 815 811 805 801 800 803 806 809 811 810 812 813 814 817 816 817 818 819 821 822 823 825 826 827 828 830 831 832 833 834 835 836 837 837 838 839 840 842 842 844 844 845 846 847 847 848 848 849 849 849 848 848 848 847 846 845 845 844 843 842 842 842 842 841 840 840 839 838 839 839 841 842 843 844 843 843 842 843 844 844 843 842 841
796 789 794 797 795 802 805 798 787 784 792 793 791 799 807 806 804 802 801 802 806 809 811 810 811 812 814 815 816 816 817 819 819 820 823 824 825 827 828 828 830 831 832 833 834 835 836 836 837 838 840 841 842 843 844 845 846 846 846 847 847 848 848 848 847 847 846 846 845 844 843 841 840 839 839 839 839 838 838 837 837 836 836 837 837 838 838 839 839 839 838 837 839 840 841 840 838
798 794 794 798 796 798 802 800 791 787 794 797 797 803 806 805 803 803 801 801 806 808 808 809 809 811 813 814 815 815 816 817 817 818 821 823 824 826 826 827 829 829 831 832 833 834 835 836 836 837 839 840 841 842 843 844 845 846 846 846 846 846 847 846 845 845 844 844 843 842 841 839 837 836 836 836 835 835 835 835 834 833 834 834 834 834 835 835 835 835 835 835 835 836 836 837 836
786 786 788 797 799 797 794 791 786 786 796 799 798 804 806 806 805 804 801 801 806 808 806 808 809 810 812 813 814 814 816 815 814 817 819 821 823 824 825 826 827 828 830 831 832 833 834 835 835 836 838 839 840 841 842 844 844 845 845 845 844 844 845 844 844 843 842 842 841 840 839 838 836 835 835 834 833 832 832 832 832 831 831 831 831 831 831 831 832 832 832 833 833 832 832 833 834
775 780 783 787 792 795 790 789 785 782 796 801 796 800 803 805 804 802 801 802 806 809 809 810 810 810 811 812 813 813 814 812 812 816 818 820 821 823 824 825 826 827 829 830 831 832 833 833 834 835 837 838 839 841 842 843 843 844 843 843 842 842 843 843 842 842 841 840 839 838 837 836 835 834 833 832 831 831 830 830 830 830 829 829 828 828 828 829 829 830 830 831 831 830 829 830 832
775 779 783 784 786 789 787 790 788 781 794 801 796 801 803 802 802 801 800 803 806 807 809 811 809 810 810 810 812 812 812 810 811 815 816 818 819 821 823 823 825 826 828 829 830 831 832 833 834 835 836 837 838 840 841 841 842 842 842 842 841 841 842 842 841 841 840 839 838 837 836 835 834 833 832 831 831 830 829 829 828 828 827 827 826 826 827 827 827 828 828 828 828 828 828 828 829
778 778 784 787 784 787 791 790 788 785 794 800 799 803 804 801 800 800 801 801 802 801 803 807 807 809 810 810 811 811 812 812 812 812 813 816 817 819 821 822 824 825 826 828 829 830 831 832 833 834 835 836 837 838 839 840 841 841 841 841 841 841 841 841 840 840 839 838 837 836 835 834 833 832 831 831 830 829 829 828 827 827 826 826 826 825 825 824 825 826 826 825 825 826 826 825 826
777 777 783 787 782 791 800 795 791 788 790 795 798 802 803 804 803 802 800 797 798 800 801 802 804 807 808 806 807 809 811 813 812 811 811 813 815 817 819 821 822 824 825 827 828 829 830 831 832 833 834 835 836 837 838 839 840 840 841 841 841 840 840 840 839 838 838 837 836 834 834 833 832 831 829 829 829 828 827 826 826 826 825 825 824 823 822 822 823 823 823 823 823 822 822 822 822
776 774 779 780 778 785 789 789 792 792 791 790 796 809 810 807 809 806 800 798 800 800 802 804 804 804 805 804 805 807 808 809 811 810 809 811 814 816 817 820 821 822 824 825 827 828 829 831 832 832 834 835 836 837 837 838 839 839 839 839 839 839 839 838 838 837 836 836 835 834 833 832 831 830 829 828 827 826 826 825 824 823 823 823 822 821 821 820 820 821 821 821 820 820 819 818 818
778 774 771 771 773 777 779 786 796 804 808 794 795 824 824 804 806 806 799 802 804 801 802 806 805 804 805 807 807 806 806 806 807 808 809 810 812 815 817 818 820 821 823 824 826 827 829 830 831 832 833 834 836 836 837 837 838 838 838 838 838 837 837 837 836 836 835 835 834 833 832 831 830 829 828 827 826 825 824 823 822 821 821 821 820 819 819 818 818 818 819 819 818 818 818 816 815
781 773 765 768 772 775 781 790 798 806 810 793 789 820 827 807 804 802 798 803 804 802 803 802 802 803 804 805 805 805 805 805 806 806 807 809 811 813 815 817 819 821 822 824 826 827 828 829 831 832 833 834 835 835 836 836 837 837 837 837 837 836 836 836 835 835 834 834 833 832 832 830 829 828 827 825 824 823 822 821 820 820 819 819 819 818 817 817 817 817 818 817 817 817 818 815 813
781 770 765 774 776 779 786 789 793 793 797 797 792 805 821 817 804 794 794 804 805 803 803 800 798 800 800 800 801 802 803 803 805 806 806 807 810 811 814 816 818 820 822 824 825 827 828 829 830 831 832 833 834 834 834 835 836 836 836 836 836 836 835 835 834 834 833 833 832 832 831 830 829 827 826 824 823 821 820 819 819 818 818 818 817 817 816 816 816 817 817 816 816 815 816 815 813
780 770 767 773 775 779 781 783 788 789 802 816 804 801 822 822 801 790 793 803 807 803 800 798 796 796 796 797 797 797 799 799 801 803 804 806 808 810 813 815 817 819 821 823 824 826 827 828 829 830 831 832 832 833 834 834 835 835 835 835 835 835 834 834 833 833 833 832 832 831 830 829 828 826 825 824 822 821 820 819 818 818 817 817 816 815 815 816 816 816 815 815 814 813 813 813 812
775 768 768 773 775 776 779 783 789 797 814 821 806 802 822 819 798 796 801 803 803 798 792 791 790 791 792 792 793 794 796 797 798 799 802 804 807 809 812 814 817 819 820 822 824 825 826 827 829 830 830 831 832 832 833 833 833 833 834 834 834 834 833 833 833 832 832 831 831 830 830 829 827 826 825 824 822 821 820 819 818 817 816 816 815 814 814 814 814 814 813 812 812 811 810 810 810
767 769 775 780 782 782 786 788 792 811 823 811 795 796 814 819 798 790 798 795 788 786 785 786 785 786 788 789 789 791 793 795 796 797 799 802 805 808 811 814 816 818 820 821 823 824 825 827 828 829 830 830 831 832 832 832 832 832 833 833 833 832 832 832 832 831 831 830 830 829 829 828 827 826 825 823 822 821 820 819 818 817 816 815 814 813 813 812 812 812 811 810 809 808 808 808 807
765 772 779 790 797 795 799 800 805 824 825 804 791 790 807 823 802 779 780 778 773 776 778 780 782 782 784 785 786 787 789 792 794 796 798 800 805 807 810 812 814 817 818 820 822 823 825 826 827 828 829 830 830 831 831 831 832 832 831 832 831 831 831 831 831 830 830 829 829 829 828 827 826 825 824 823 822 821 819 818 817 816 815 814 813 813 812 812 811 810 809 808 807 807 807 806 805
769 774 783 800 812 815 820 820 817 821 814 800 795 796 806 812 794 774 771 768 768 770 769 771 774 776 779 781 782 783 786 789 791 794 796 799 803 805 807 811 813 815 817 819 820 822 824 825 827 828 828 829 830 830 831 831 831 831 831 830 830 830 830 830 830 829 829 829 828 828 827 826 825 824 823 822 821 820 819 818 817 815 814 814 813 812 811 811 810 809 808 806 805 805 805 804 803
774 777 786 801 813 829 836 826 819 816 807 797 794 802 810 802 781 770 768 765 763 763 764 765 766 770 774 776 778 780 783 786 788 791 794 796 799 802 805 808 811 813 815 817 819 821 823 824 826 827 827 828 828 829 829 830 830 830 830 830 829 829 829 829 829 828 828 828 828 827 826 825 824 823 822 821 820 819 818 817 816 815 814 813 812 811 810 809 808 807 807 805 804 803 802 801 801
769 764 772 788 795 812 823 815 814 812 804 804 806 809 810 800 782 769 766 764 761 761 763 763 765 766 768 771 774 777 780 783 786 788 790 793 796 800 803 806 809 811 813 816 818 819 821 823 824 825 826 826 827 828 828 828 828 828 829 828 828 828 828 828 828 828 828 827 827 826 825 824 823 822 821 821 819 818 817 816 815 814 813 812 810 809 808 808 807 806 805 804 803 801 800 799 798
766 757 770 783 775 781 799 802 800 798 802 808 810 804 789 778 771 762 764 767 764 766 766 765 769 768 767 771 773 774 777 779 783 786 788 790 794 797 800 803 806 809 812 814 816 818 820 822 823 823 824 825 826 826 827 827 827 827 827 827 827 827 827 827 827 827 827 826 826 825 824 823 822 821 821 820 819 818 816 815 814 813 812 811 809 808 807 806 805 804 803 802 800 800 799 797 796
768 770 779 775 760 766 792 804 797 800 813 806 797 797 782 772 771 761 762 769 766 768 769 767 770 769 770 772 771 772 774 776 780 783 785 788 791 795 798 800 804 806 810 812 814 816 818 820 821 822 823 823 824 825 825 825 826 826 826 826 826 826 826 826 826 826 826 825 824 824 823 822 821 820 820 819 817 816 815 814 813 812 811 810 809 808 806 805 804 803 801 800 799 798 797 795 794
768 778 771 763 765 771 785 804 806 810 818 802 791 798 789 786 786 770 767 772 767 767 769 767 768 769 771 771 769 770 771 773 777 779 782 785 789 793 795 798 801 804 807 810 812 814 816 818 819 820 821 822 823 823 823 824 824 824 825 824 825 825 825 825 825 825 824 824 823 822 821 821 820 819 818 817 816 815 814 813 811 810 810 809 808 806 805 804 803 802 800 799 798 796 795 793 792
759 762 753 762 785 790 790 804 810 812 816 802 793 795 789 786 784 773 772 773 766 765 767 768 767 767 768 768 768 769 769 771 776 778 781 783 786 790 793 796 799 802 806 808 810 813 814 816 817 818 820 820 821 822 822 823 822 823 823 823 823 823 823 823 823 823 822 822 821 820 820 819 818 817 816 815 814 813 812 811 810 809 808 807 806 805 804 803 802 801 799 798 796 795 793 792 790
758 757 754 760 773 780 785 790 793 802 811 804 798 798 788 774 767 767 770 767 763 765 766 767 765 763 764 765 765 768 768 769 772 775 778 780 783 787 791 794 797 800 804 806 809 811 812 814 816 817 818 819 820 820 820 821 821 821 821 821 821 821 821 822 821 821 821 820 820 819 818 817 816 815 814 813 813 811 811 810 808 808 806 805 805 804 803 802 800 799 798 796 795 793 792 790 788
765 769 769 768 768 772 778 780 779 789 804 806 807 805 784 761 756 762 764 761 760 761 762 763 761 758 759 761 762 765 766 766 768 771 774 777 781 785 789 793 795 798 802 804 806 808 809 812 814 815 816 817 818 819 819 820 820 820 820 820 820 820 819 820 819 819 819 818 818 817 816 816 814 814 813 812 811 810 809 808 807 806 805 804 803 802 801 800 799 798 797 795 794 792 790 788 787
756 763 763 764 769 776 787 793 784 781 791 797 804 808 783 756 753 756 756 757 756 755 758 759 757 756 757 757 759 761 762 763 765 767 770 773 778 782 786 790 793 796 799 801 804 805 807 810 811 813 814 815 816 817 818 818 818 818 818 818 818 818 818 818 818 818 817 817 816 816 815 814 813 812 811 810 809 809 808 807 806 805 804 803 802 801 800 799 798 797 796 794 793 791 789 787 785